Temperature
23 22 22 21 21 20 20 19 18 18 17 16 16 15 15 14 14 14 14 14 13 13 13 13 13 13 13 13 13 14 14 14 15 15 15 15 15 15 15 16 16 16 16
22 22 22 21 21 20 20 19 18 18 17 16 16 15 15 14 14 14 14 13 13 13 13 13 13 13 13 13 13 13 14 14 14 14 15 15 15 15 15 16 16 16 16
22 22 21 21 21 20 20 19 19 18 17 16 16 15 15 14 14 14 14 13 13 13 13 13 13 13 13 13 13 13 13 14 14 14 14 15 15 15 15 15 15 16 16
23 22 22 21 21 21 20 19 19 18 17 17 16 15 15 14 14 14 14 13 13 13 13 13 13 13 13 13 13 13 13 13 14 14 14 14 14 15 15 15 15 15 16
23 23 22 22 21 21 20 19 19 18 17 17 16 15 15 14 14 14 14 13 13 13 13 13 13 13 13 13 13 13 13 13 13 14 14 14 14 14 15 15 15 15 15
23 23 22 22 21 20 20 19 19 18 17 17 16 15 15 14 14 14 14 14 13 13 13 13 13 13 13 13 13 13 13 13 13 13 13 14 14 14 14 14 14 15 15
23 23 22 21 21 20 20 19 19 18 17 17 16 15 15 15 14 14 14 14 13 13 13 13 13 13 13 13 13 13 13 13 13 13 13 13 13 14 14 14 14 14 15
24 23 23 22 21 21 20 19 19 18 18 17 16 16 15 15 14 14 14 14 14 13 13 13 13 13 13 13 13 13 13 13 13 13 13 13 13 13 14 14 14 14 14
24 23 23 22 22 21 20 20 19 18 18 17 16 16 15 15 14 14 14 14 14 14 13 13 13 13 13 13 13 13 13 13 13 13 13 13 13 13 13 13 14 14 14
24 23 23 22 22 21 21 20 19 19 18 17 16 16 15 15 15 14 14 14 14 14 14 13 13 13 13 13 13 13 13 13 13 13 13 13 13 13 13 13 13 13 14
24 24 23 23 22 21 21 20 19 19 18 17 17 16 15 15 15 14 14 14 14 14 14 14 13 13 13 13 13 13 13 13 13 13 13 13 13 13 13 13 13 13 13
24 24 23 23 22 21 21 20 19 19 18 18 17 16 16 15 15 15 14 14 14 14 14 14 14 13 13 13 13 13 13 13 13 13 13 13 12 13 13 13 13 13 13
24 24 23 22 22 21 21 20 20 19 18 18 17 16 16 15 15 15 15 14 14 14 14 14 14 14 14 14 13 13 13 13 13 13 13 13 13 13 12 12 13 13 13
23 23 23 22 22 22 21 21 20 19 19 18 17 17 16 16 15 15 15 14 14 14 14 14 14 14 14 14 14 13 13 13 13 13 13 13 13 13 13 13 12 12 13
22 22 22 22 22 21 21 21 20 20 19 18 18 17 17 16 15 15 15 15 14 14 14 14 14 14 14 14 14 14 13 13 13 13 13 13 13 13 13 13 12 12 12
21 21 22 21 21 21 21 21 20 20 19 18 18 18 17 16 16 15 15 15 15 15 14 14 14 14 14 14 14 14 14 13 13 13 13 13 13 13 13 12 12 12 12
21 21 21 21 21 21 21 21 21 20 19 19 18 18 17 17 16 16 15 15 15 15 15 15 14 14 14 14 14 14 14 13 13 13 13 13 13 13 13 12 12 12 12
20 21 21 21 21 21 21 21 20 20 19 19 19 18 17 17 16 16 16 16 15 15 15 15 15 15 14 14 14 14 14 14 13 13 13 13 13 13 13 12 12 12 12
20 20 20 21 21 21 21 20 20 20 19 19 19 18 18 17 17 16 16 16 16 15 15 15 15 15 14 14 14 14 14 13 13 13 13 13 13 13 13 13 12 12 12
19 20 20 20 20 20 20 20 20 19 19 19 19 19 18 18 17 17 16 16 16 15 15 15 15 15 14 14 14 14 13 13 13 13 13 13 13 13 13 13 12 12 12
18 19 19 19 19 19 19 19 19 19 19 19 19 19 18 18 18 17 17 16 16 15 15 15 15 14 14 14 14 14 13 13 13 13 13 13 12 12 12 12 12 12 12
17 17 18 18 18 18 19 19 19 19 19 19 19 19 18 18 18 17 17 16 16 15 15 15 15 14 14 14 14 14 13 13 13 13 13 12 12 12 12 12 12 12 12
16 16 16 17 17 18 18 18 18 18 18 19 18 18 18 18 18 17 17 16 16 15 15 15 15 14 14 14 14 13 13 13 13 12 12 12 12 12 12 12 12 12 11
15 15 15 16 16 17 17 17 17 18 18 18 18 18 18 18 18 17 17 17 16 16 15 15 15 15 14 14 14 13 13 13 12 12 12 11 11 11 11 11 11 11 11
14 14 14 14 15 15 16 16 16 17 17 17 17 17 18 18 17 17 17 17 17 16 16 16 15 15 14 14 14 13 13 13 12 12 11 11 11 11 11 11 10 10 10
12 12 13 13 13 14 15 15 15 16 16 16 16 17 17 17 17 17 17 17 16 16 16 15 15 15 14 14 14 13 13 12 12 11 11 11 11 10 10 10 10 10 10
Wind_Speed
10 10 11 11 11 10 10 9 9 7 5 3 3 2 1 0 0 0 1 2 2 3 3 2 3 3 3 3 3 2 2 2 2 2 3 3 2 0 1 1 1 0 1
8 10 10 11 12 11 11 10 10 8 6 4 3 3 2 1 1 1 0 0 0 1 2 2 2 3 2 4 4 3 2 2 2 2 2 3 4 3 1 0 1 0 1
15 13 12 11 11 12 12 11 10 9 7 6 4 3 3 3 2 1 1 2 1 0 1 2 2 2 2 2 2 2 2 2 2 2 2 2 0 2 3 2 1 0 0
12 13 13 13 13 12 11 11 10 9 8 7 6 5 3 2 3 2 2 2 2 1 1 1 2 2 2 2 2 2 1 1 1 2 1 1 2 1 1 2 2 0 0
14 15 15 14 12 11 11 11 10 9 8 7 7 6 4 3 2 1 1 1 2 2 1 1 1 2 1 1 3 2 2 1 1 1 1 2 2 2 2 1 3 2 2
12 12 12 10 9 10 10 10 10 9 8 8 7 7 6 4 3 2 1 1 2 2 2 1 0 0 0 1 2 2 2 2 2 2 2 1 1 1 2 1 1 1 2
11 11 11 11 11 12 12 11 11 9 8 8 7 7 7 6 6 4 3 2 2 2 3 2 1 1 1 1 1 2 2 2 2 1 1 1 0 1 2 2 0 1 2
10 12 14 14 13 13 13 12 12 10 9 9 8 6 6 5 4 5 4 4 4 4 4 3 2 2 2 0 1 1 1 1 2 2 1 1 1 1 1 2 2 1 2
10 11 12 13 13 14 14 14 13 10 10 9 8 7 7 6 6 5 4 3 4 4 4 3 2 2 2 1 1 1 1 1 1 1 2 1 1 1 1 1 2 3 1
9 10 11 13 13 14 12 12 12 12 10 10 9 7 7 7 6 5 5 4 4 4 3 3 2 2 2 1 1 0 0 1 1 0 1 1 1 1 1 1 1 2 3
10 10 11 12 12 11 11 11 11 10 10 10 8 8 7 7 6 6 6 5 4 4 4 4 3 3 3 2 1 1 1 1 0 1 1 0 1 1 1 1 2 2 2
8 9 10 9 10 11 11 12 12 11 11 10 9 9 8 7 7 7 6 5 5 4 4 4 3 3 3 3 3 2 2 2 1 1 1 1 1 1 1 1 1 1 1
6 6 7 9 11 12 12 12 12 12 11 10 10 9 8 8 8 8 7 6 5 4 3 4 4 4 4 3 3 3 2 3 3 3 3 2 2 1 0 1 1 0 1
3 4 6 8 9 10 12 12 12 12 11 11 11 10 10 10 9 8 7 7 6 5 4 5 5 5 4 4 3 3 3 2 2 3 3 3 4 4 3 2 1 1 1
3 3 5 6 7 8 10 11 12 11 12 12 12 12 10 9 9 8 8 7 6 6 5 5 5 5 4 4 5 4 3 2 2 2 3 4 5 6 5 3 3 2 2
5 5 5 5 6 8 10 11 12 12 12 13 13 11 10 9 9 9 8 7 7 6 5 5 5 5 5 7 8 6 4 3 3 3 3 3 4 5 5 5 5 5 4
6 5 5 6 7 8 9 11 13 11 12 13 12 12 11 11 11 10 9 9 8 6 5 5 5 5 6 8 8 8 5 4 4 4 3 3 3 4 3 3 4 4 4
9 7 7 7 7 6 6 8 8 11 13 13 13 12 12 12 11 10 10 9 7 7 6 6 6 5 6 8 8 7 4 3 4 5 5 4 3 4 5 3 2 2 2
8 7 7 6 5 5 4 5 6 9 11 13 14 13 13 13 12 12 11 9 7 7 7 6 6 6 6 7 8 7 3 3 3 3 4 4 4 5 6 5 3 1 2
9 10 8 6 5 5 3 4 7 8 11 14 14 13 13 14 14 14 11 8 7 8 7 6 6 7 6 7 8 8 4 3 3 2 2 4 4 4 5 5 5 3 2
10 11 10 8 7 5 2 3 6 10 13 11 11 12 14 15 14 12 10 8 8 8 7 7 5 5 6 7 8 9 5 5 4 3 2 2 4 4 5 6 5 5 3
11 11 10 10 8 5 3 5 7 9 8 7 9 11 13 14 12 11 10 9 10 9 8 6 5 4 4 5 6 9 9 8 5 4 3 3 4 4 4 4 4 5 4
11 10 10 11 10 7 5 7 8 6 5 7 9 11 11 12 11 13 12 9 9 9 8 7 6 5 3 3 6 8 9 9 5 4 5 5 4 3 3 4 5 5 4
10 10 11 12 12 11 9 8 8 5 4 7 9 9 10 10 10 10 11 10 10 10 9 9 8 6 4 4 3 4 5 6 5 3 3 4 4 4 4 4 3 3 3
9 9 10 11 13 12 11 10 7 5 5 6 7 7 9 10 9 9 9 11 11 12 12 10 10 9 8 9 10 8 6 6 6 5 3 3 3 3 3 3 3 3 3
9 10 11 12 13 13 12 11 8 6 6 5 6 6 6 7 8 7 4 3 6 11 15 14 12 9 10 12 13 12 11 11 11 7 4 4 4 4 4 4 3 3 3
Wind_Direction
193 172 165 157 153 153 150 149 145 148 136 117 114 111 123 183 24 241 138 94 62 40 38 15 3 10 14 352 350 349 344 335 350 26 358 349 350 278 232 221 178 189 272
181 173 166 160 161 162 159 154 154 156 154 147 151 160 164 191 219 269 303 158 70 23 38 28 10 6 13 7 8 18 11 350 20 68 58 7 358 359 8 63 136 187 253
184 179 172 171 166 166 166 163 162 159 157 145 122 90 65 42 27 346 300 287 258 252 36 23 24 15 28 9 360 13 40 7 353 44 110 107 308 327 350 10 31 72 249
182 178 175 175 176 175 168 159 159 158 158 148 138 138 144 174 223 227 249 274 255 259 323 21 31 25 20 5 347 34 37 69 14 351 22 126 163 135 0 344 347 2 159
181 182 182 181 177 169 164 160 157 159 162 156 151 150 161 192 223 232 251 277 287 282 285 337 47 39 22 7 10 18 28 55 83 43 18 30 44 70 115 16 339 346 336
186 184 180 169 165 162 160 159 158 165 167 162 161 166 174 184 193 213 220 257 271 290 288 278 28 18 349 349 3 11 35 46 63 63 62 84 80 66 104 124 309 316 317
179 175 171 172 170 168 168 167 164 171 177 172 175 181 186 186 194 204 205 201 215 243 256 255 255 255 272 313 32 41 36 53 70 72 65 76 121 168 143 128 110 9 336
184 184 183 181 179 177 174 172 174 177 181 182 188 190 189 186 200 207 199 198 206 219 226 231 241 249 258 358 61 57 36 74 75 60 63 71 26 72 124 142 131 69 10
192 192 190 186 183 182 182 180 179 181 186 188 188 193 193 192 201 207 199 198 210 220 218 222 233 246 244 197 113 75 36 72 66 59 61 68 34 53 77 115 137 141 113
201 196 193 193 191 189 186 182 181 185 188 187 189 193 196 198 197 194 200 202 211 216 211 225 235 232 235 219 171 181 340 68 35 105 83 52 36 44 56 82 101 127 146
210 202 199 197 193 187 184 185 187 186 188 190 191 189 195 198 193 194 203 202 207 211 215 219 214 213 214 212 197 233 210 139 17 44 108 100 87 79 59 71 82 89 128
215 207 200 191 189 191 191 191 190 190 192 190 187 191 195 192 192 199 206 203 208 215 215 204 200 206 206 201 195 217 208 194 193 191 140 216 136 94 71 80 80 88 137
230 213 200 196 197 198 197 196 195 195 192 186 186 190 194 193 198 203 205 202 205 211 210 193 199 203 199 196 202 201 203 207 208 201 189 198 152 148 153 112 96 85 99
244 218 215 215 211 205 202 199 200 196 189 186 188 193 199 199 201 201 200 200 199 199 204 202 202 202 201 196 194 188 193 210 219 214 209 201 186 187 182 163 159 134 99
306 251 230 227 225 218 211 205 202 196 190 188 193 200 201 197 197 197 199 199 200 203 200 197 204 209 207 207 195 189 188 195 216 230 232 225 213 203 190 178 178 151 129
314 287 266 251 236 226 219 211 205 199 190 193 200 199 193 193 196 198 197 197 203 207 201 206 206 214 222 218 204 189 190 194 202 231 250 249 236 227 213 200 187 174 165
326 308 285 260 246 237 222 215 211 197 192 198 200 196 192 194 199 199 194 199 203 201 208 216 211 219 232 228 217 205 192 204 214 219 229 240 226 213 208 226 216 214 206
339 323 301 284 266 251 237 220 205 194 197 200 201 198 194 197 196 193 197 202 199 201 210 216 214 221 237 232 227 217 200 219 231 221 216 216 231 214 191 188 196 244 263
334 320 306 288 278 271 257 217 204 201 201 205 205 201 196 195 193 197 201 201 197 202 206 207 208 214 239 236 222 207 189 219 244 238 215 204 212 218 189 168 177 208 291
345 340 331 327 309 289 274 222 213 206 212 214 211 203 196 195 197 201 200 195 195 202 202 208 208 208 224 233 222 200 180 199 226 237 223 212 204 203 180 169 172 187 229
342 347 344 335 314 305 289 254 231 225 225 220 211 202 198 199 200 198 193 190 192 193 197 204 212 213 221 232 223 198 180 189 195 202 216 221 195 185 178 170 177 196 184
344 345 343 332 324 321 302 279 256 246 237 221 211 206 203 202 200 192 192 188 186 188 195 198 211 224 229 225 217 198 186 179 178 196 205 209 194 179 172 165 169 163 140
336 336 335 331 329 325 306 279 278 275 248 224 219 213 206 203 193 191 191 187 186 191 196 196 205 216 220 222 201 187 182 180 177 191 192 189 182 154 139 136 137 132 125
332 331 333 333 328 323 311 289 289 288 256 236 227 216 204 202 197 193 192 191 192 194 196 198 202 202 199 201 189 172 166 169 169 170 168 152 132 118 113 104 101 106 129
325 328 326 321 318 319 313 306 306 292 264 251 237 222 209 200 198 196 197 196 201 198 195 200 195 191 202 208 191 177 177 174 169 147 125 121 124 125 109 94 92 92 98
322 324 323 320 317 316 316 311 308 297 265 259 246 230 217 204 195 187 185 202 202 202 198 192 185 195 195 181 183 183 180 174 164 146 147 155 154 155 153 143 126 111 115
Height
1502 1504 1506 1508 1510 1511 1512 1512 1513 1513 1513 1513 1513 1513 1512 1512 1511 1510 1509 1508 1506 1505 1503 1501 1500 1498 1497 1496 1495 1494 1493 1493 1492 1493 1493 1493 1494 1495 1496 1497 1499 1501 1503
1500 1502 1504 1506 1507 1508 1509 1510 1511 1511 1512 1512 1512 1512 1511 1511 1510 1509 1509 1507 1506 1504 1503 1501 1500 1498 1497 1496 1495 1494 1493 1492 1492 1492 1492 1493 1495 1494 1495 1496 1498 1499 1501
1495 1498 1501 1503 1505 1506 1507 1508 1509 1510 1510 1510 1510 1510 1510 1510 1510 1509 1508 1507 1505 1504 1502 1501 1500 1498 1497 1495 1494 1493 1493 1492 1492 1492 1493 1493 1493 1494 1495 1496 1497 1498 1500
1492 1495 1497 1500 1502 1504 1506 1507 1508 1508 1509 1509 1509 1509 1509 1509 1508 1508 1507 1506 1505 1504 1503 1501 1500 1498 1497 1495 1494 1494 1493 1493 1492 1492 1492 1493 1493 1494 1495 1496 1497 1498 1499
1489 1492 1494 1497 1500 1502 1504 1505 1506 1507 1507 1508 1508 1508 1508 1508 1507 1507 1507 1506 1505 1504 1503 1501 1500 1498 1497 1496 1495 1494 1493 1493 1492 1492 1492 1493 1493 1494 1494 1495 1496 1497 1498
1488 1490 1492 1496 1498 1500 1502 1503 1504 1505 1506 1506 1506 1506 1506 1506 1506 1506 1506 1505 1504 1504 1502 1501 1500 1498 1497 1496 1495 1494 1493 1493 1493 1492 1492 1492 1493 1493 1494 1495 1495 1496 1497
1486 1488 1491 1493 1496 1497 1499 1500 1502 1503 1504 1504 1504 1505 1505 1505 1505 1505 1505 1504 1504 1503 1502 1501 1500 1498 1497 1496 1495 1494 1494 1493 1493 1493 1492 1493 1493 1493 1494 1494 1494 1495 1496
1485 1486 1488 1490 1492 1494 1496 1498 1499 1500 1501 1502 1503 1503 1504 1504 1504 1504 1504 1503 1503 1502 1502 1501 1500 1498 1497 1496 1495 1494 1494 1493 1493 1493 1493 1493 1493 1493 1493 1494 1494 1495 1495
1483 1484 1486 1488 1490 1491 1493 1494 1496 1498 1499 1500 1501 1501 1502 1502 1502 1503 1503 1502 1502 1502 1501 1500 1499 1498 1497 1496 1495 1494 1494 1493 1493 1493 1493 1493 1493 1493 1493 1493 1494 1495 1495
1482 1482 1483 1485 1487 1488 1490 1492 1494 1495 1496 1497 1498 1499 1500 1501 1501 1501 1501 1501 1501 1501 1500 1500 1499 1498 1497 1496 1496 1495 1494 1493 1493 1493 1493 1492 1492 1492 1492 1493 1493 1494 1494
1479 1479 1480 1482 1484 1486 1487 1489 1491 1492 1494 1495 1496 1497 1498 1499 1499 1500 1500 1500 1500 1500 1500 1499 1498 1498 1497 1496 1496 1495 1494 1494 1493 1492 1492 1492 1492 1492 1492 1492 1492 1493 1493
1477 1477 1478 1479 1481 1482 1484 1485 1487 1489 1490 1492 1493 1494 1496 1497 1497 1498 1498 1499 1499 1499 1498 1498 1498 1497 1497 1496 1495 1495 1494 1494 1493 1492 1492 1492 1491 1491 1491 1491 1492 1492 1492
1475 1475 1476 1477 1477 1478 1480 1482 1483 1485 1487 1489 1490 1491 1493 1494 1495 1496 1496 1497 1497 1497 1497 1497 1497 1496 1496 1495 1495 1494 1494 1493 1493 1492 1492 1492 1491 1491 1491 1490 1491 1491 1491
1474 1474 1474 1474 1475 1475 1476 1478 1479 1482 1484 1485 1487 1488 1489 1491 1492 1493 1494 1495 1495 1495 1495 1495 1495 1495 1495 1495 1494 1494 1493 1493 1492 1492 1492 1491 1491 1490 1490 1490 1490 1490 1490
1473 1473 1472 1472 1472 1473 1473 1474 1475 1477 1479 1481 1483 1484 1486 1487 1489 1490 1491 1492 1493 1493 1493 1494 1494 1494 1494 1493 1493 1493 1492 1492 1492 1491 1491 1491 1490 1490 1490 1490 1489 1489 1489
1472 1471 1470 1470 1469 1469 1469 1470 1471 1473 1475 1476 1478 1480 1482 1484 1485 1487 1488 1489 1490 1490 1491 1491 1491 1492 1492 1492 1491 1491 1491 1491 1490 1490 1490 1490 1489 1489 1489 1489 1489 1488 1488
1472 1470 1468 1467 1466 1466 1465 1465 1466 1468 1470 1471 1473 1475 1477 1479 1481 1483 1484 1485 1486 1487 1488 1488 1489 1489 1489 1489 1489 1489 1489 1488 1488 1488 1488 1488 1488 1488 1487 1487 1487 1487 1487
1471 1468 1466 1465 1463 1463 1462 1462 1463 1464 1465 1467 1468 1471 1473 1474 1477 1479 1480 1482 1483 1484 1484 1485 1485 1486 1486 1486 1486 1486 1486 1486 1486 1486 1486 1486 1486 1486 1486 1486 1486 1486 1486
1471 1468 1466 1463 1461 1460 1459 1458 1459 1459 1461 1462 1463 1465 1467 1469 1472 1473 1475 1477 1478 1480 1480 1481 1482 1482 1483 1483 1483 1483 1483 1482 1482 1482 1482 1483 1483 1483 1483 1484 1484 1484 1484
1469 1466 1463 1461 1459 1457 1456 1455 1455 1455 1455 1456 1458 1460 1462 1464 1466 1468 1470 1472 1474 1475 1476 1477 1478 1478 1478 1479 1479 1479 1479 1479 1479 1479 1479 1480 1480 1480 1481 1481 1481 1481 1481
1468 1465 1462 1459 1457 1455 1453 1452 1451 1450 1450 1451 1453 1454 1456 1458 1460 1463 1465 1467 1469 1470 1471 1472 1473 1473 1474 1474 1475 1475 1475 1475 1475 1475 1476 1476 1476 1477 1478 1478 1479 1479 1480
1466 1463 1460 1457 1455 1453 1451 1448 1447 1446 1446 1446 1447 1448 1449 1452 1454 1457 1459 1461 1463 1464 1466 1467 1467 1468 1469 1470 1470 1471 1471 1471 1471 1471 1472 1472 1473 1474 1474 1475 1476 1476 1477
1464 1461 1458 1454 1452 1450 1448 1445 1443 1442 1441 1441 1441 1442 1443 1445 1447 1450 1452 1454 1456 1458 1459 1461 1462 1463 1464 1465 1466 1466 1466 1467 1467 1468 1468 1469 1469 1470 1471 1472 1473 1473 1474
1462 1458 1455 1451 1448 1446 1444 1441 1439 1437 1436 1435 1435 1435 1437 1438 1440 1442 1445 1447 1449 1451 1452 1454 1455 1457 1459 1460 1461 1461 1462 1463 1463 1464 1464 1465 1466 1467 1468 1469 1469 1470 1471
1458 1455 1452 1448 1444 1441 1438 1436 1434 1432 1430 1429 1429 1429 1430 1431 1432 1435 1437 1439 1441 1443 1445 1447 1449 1451 1452 1454 1456 1457 1457 1458 1459 1460 1461 1461 1462 1463 1464 1465 1466 1467 1468
1455 1451 1448 1444 1440 1436 1433 1431 1428 1426 1424 1423 1422 1422 1423 1424 1425 1427 1429 1431 1434 1437 1439 1442 1444 1446 1448 1450 1451 1452 1453 1454 1455 1456 1456 1458 1459 1460 1461 1462 1463 1464 1465